Location: Unspecified
(0.0000°N, 0.0000°E)
Time: 09:27:31
(UTC+00:00)

ACS3 Solar Sail - Pass Details

Date: 10 November 2025
Orbit: 910 x 992 km, 97.3° (Epoch: 12 November)

Event Time Altitude Azimuth Distance (km) Brightness Sun altitude
Exits shadow 03:01:31 15° 181° (S) 2,398 4.0 -38.4°
Drops below altitude 10° 03:02:30 10° 183° (S) 2,760 4.3 -38.2°
Sets 03:04:59 0° 185° (S) 3,707 5.0 -37.6°
